This demonstration page uses our WeatherBlox Daily Observations layout. Learn more.

Left ArrowRight Arrow

39.08367, -84.50855

Hourly Observations for September 18, 2021

Temp ( °F °C ) Dew Point ( °F °C ) Humidity (%) Winds ( mph kmh ) Pressure ( in mb ) Visibility ( mi km ) Precip ( " mm )
12:53 am 00:53 Clear 68 20 67 19.4 96 96 ESE 3 6 30.11 1020 10 16 N/A
1:53 am 01:53 Clear 68 20 67 19.4 96 96 N N/A 30.12 1020 9 14 N/A
2:14 am 02:14 Mostly Clear 67 19.4 66 18.9 97 97 N N/A 30.12 1020 10 16 N/A
2:53 am 02:53 Mostly Cloudy 67 19.4 66 18.9 97 97 N N/A 30.11 1020 10 16 N/A
3:53 am 03:53 Mostly Cloudy with Mist and Fog 65 18.3 64 17.8 97 97 N N/A 30.11 1020 5 8 N/A
4:53 am 04:53 Cloudy 66 18.9 65 18.3 96 96 N N/A 30.12 1020 10 16 N/A
5:24 am 05:24 Cloudy with Mist and Fog 66 18.9 66 18.9 100 100 N N/A 30.13 1020 3 4 N/A
5:38 am 05:38 Cloudy with Mist and Fog 65 18.3 65 18.3 100 100 N N/A 30.13 1020 3 5 N/A
5:53 am 05:53 Cloudy with Mist and Fog 65 18.3 65 18.3 100 100 N N/A 30.13 1020 4 6 N/A
6:45 am 06:45 Cloudy 66 18.9 65 18.3 96 96 N N/A 30.13 1020 7 11 N/A
6:53 am 06:53 Cloudy 66 18.9 65 18.3 96 96 NE 3 6 30.13 1020 7 11 N/A
7:26 am 07:26 Cloudy with Mist and Fog 65 18.3 65 18.3 100 100 N N/A 30.14 1021 5 8 N/A
7:49 am 07:49 Mostly Cloudy with Fog 66 19 66 19 100 100 SSW 5 7 30.15 1021 0 0 N/A
7:53 am 07:53 Mostly Cloudy with Fog 66 18.9 66 18.9 100 100 SW 3 6 30.14 1021 0 0 N/A
8:53 am 08:53 Mostly Cloudy with Mist and Fog 68 20 68 20 100 100 N N/A 30.15 1021 2 3 N/A
9:20 am 09:20 Partly Cloudy with Mist and Fog 70 21.1 69 20.6 97 97 N N/A 30.16 1021 3 5 N/A
9:53 am 09:53 Sunny 74 23.3 70 21.1 88 88 N N/A 30.15 1021 10 16 N/A
10:53 am 10:53 Sunny 81 27.2 69 20.6 67 67 ENE 5 7 30.14 1021 10 16 N/A
11:53 am 11:53 Sunny 86 30 68 20 55 55 NE 5 7 30.14 1021 10 16 N/A
12:53 pm 12:53 Partly Cloudy 83 28.3 69 20.6 63 63 SE 3 6 30.13 1020 10 16 N/A
1:53 pm 13:53 Mostly Sunny 87 30.6 65 18.3 48 48 N N/A 30.11 1020 10 16 N/A
2:53 pm 14:53 Mostly Sunny 90 32.2 67 19.4 47 47 N N/A 30.09 1019 10 16 N/A
3:53 pm 15:53 Mostly Sunny 89 31.7 63 17.2 42 42 N N/A 30.08 1019 10 16 N/A
4:53 pm 16:53 Partly Cloudy 88 31.1 65 18.3 46 46 N N/A 30.06 1018 10 16 N/A
5:53 pm 17:53 Sunny 86 30 67 19.4 53 53 N N/A 30.06 1018 10 16 N/A
6:53 pm 18:53 Sunny 79 26.1 73 22.8 82 82 SSE 3 6 30.06 1018 10 16 N/A
7:53 pm 19:53 Mostly Clear 76 24.4 70 21.1 82 82 N N/A 30.07 1018 10 16 N/A
8:53 pm 20:53 Clear 73 22.8 69 20.6 87 87 N N/A 30.09 1019 10 16 N/A
9:53 pm 21:53 Clear 71 21.7 69 20.6 94 94 N N/A 30.10 1019 10 16 N/A
10:53 pm 22:53 Clear 69 20.6 67 19.4 93 93 N N/A 30.11 1020 10 16 N/A
11:53 pm 23:53 Clear 69 20.6 68 20 96 96 N N/A 30.11 1020 10 16 N/A

Powered by AerisWeather